SL-16 DEB, 22394

Orbit data source: Space-Track

SL-16 DEB, 22394 is space debris in LEO originally from a launch on Fri, 25 Dec 1992 UTC launched from the Tyuratam Missile And Space Complex (TTMTR). Debris objects in space refer to the collection of defunct objects orbiting the Earth. Examples of debris include non-operational satellites, rocket bodies, and fragments generated from explosions, collisions, or faulty payload assembly.

Loading next visibility...
Identifier
22394, 1992-093CK
Orbit
LEO
Country
Flag of CISCIS
Related business
Manufacturer
Unknown
Mission
Spacecraft
Bus & Motor
Unknown
Mass
Unknown
Launch date (UTC)
1992-12-25 (33 years ago)
Launch vehicle
Unknown
Launch site
Tyuratam Missile And Space Complex (TTMTR)
Object type
Payload
Rocket body
Debris
Shape & HBR
Unknown shape, 0.4 m
Radar Cross Section
Medium (>0.1 m² and <1 m²)

Expand to show TLE details & history
Last TLE update: 15 hours ago

TLE from 15 hours ago
0 SL-16 DEB
1 22394U 92093CK  26127.08994156  .00000695  00000-0  40282-3 0  9992
2 22394  71.2771   7.5543 0070624 113.9846 246.8691 14.10903383705361
Epoch: 2026-05-07T02:09Z
TLE epoch observation values (Epoch: 2026-05-07T02:09:30.950Z)
Latitude
-0.00009°
Longitude
110.23423°
Altitude
879.074 km
Speed
7.403 km/s
True Right ascension
00h 30m 13s
True Declination
0° 00' 00"
Sunlit
Object was in daylight at epoch
Visualization orbit readout
Latitude
Unknown
Longitude
Unknown
Altitude
Unknown
Speed
Unknown
Apparent Right ascension
Unknown
Apparent Declination
Unknown
Sunlit
N/A
Visualization observer readout
Local Sidereal Time
01:06:51
Azimuth
Unknown
Elevation
Unknown
Doppler factor
Unknown
Orbital elements
Apogee altitude
905.261 km
Perigee altitude
803.106 km
Semi-major axis
7,232.321 km
Eccentricity
0.00706
Inclination
71.2771°
RAAN
7.5543°
Arg. of periapsis
113.9846°
True anomaly
246.12746°
Mean anomaly
246.8691°
Eccentric anomaly
246.49802°
Mean motion
3.5288 °/min
Orbital period
102.02 mins
BSTAR
0.00040282
Loading maneuver chart data...
Computing Atmospheric mass density...
Loading historical data...
Loading historical data...
Loading historical data...
Loading historical data...
Loading historical data...
Loading historical data...
Loading historical data...

Documentation

Showing up to 5 results
|